Location: Newark
(42.8481°N, 0.4872°E)
Time: 23:10:11
(UTC+00:00)

Transit 2A - Pass Details

Date: 01 November 2020
Orbit: 595 x 963 km, 66.7° (Epoch: 03 December)

Event Time Altitude Azimuth Distance (km) Brightness Sun altitude
Rises 22:42:10 0° 177° (S) 3,602 - -59.2°
Reaches altitude 10° 22:44:59 10° 167° (SSE) 2,681 - -59.4°
Maximum altitude 22:50:22 30° 109° (ESE) 1,652 - -59.9°
Drops below altitude 10° 22:55:43 10° 50° (NE) 2,674 - -60.3°
Sets 22:58:31 0° 41° (NE) 3,592 - -60.5°
